Current Version              Previous Version:    01  02  03  04  05  06  07  08  09  10  11  12  13  14  15  16  17  18  19  20  21  22  23  24  25  26  27  28  29  30  
   31  32  33  34  35  36  37  38  39  40  41  42  43  44  45  46  47  48  49  50  51  52  53  54  55  56  57  58  59  60  

[Printable]
846
ASUS44 KEWX 232002
RWRTX
SOUTH TEXAS REGIONAL WEATHER ROUNDUP
NATIONAL WEATHER SERVICE AUSTIN/SAN ANTONIO TX
300 PM CDT WED APR 23 2014

NOTE: "FAIR" INDICATED FEW OR NO CLOUDS BELOW 12,000 FEET WITH NO
SIGNIFICANT WEATHER AND/OR OBSTRUCTIONS TO VISIBILITY.

* - THESE STATIONS ARE NOT NWS OR FAA STATIONS...AND ARE NOT SUBJECT
    TO NWS AND FAA QUALITY CONTROL.

TXZ171-172-183>190-232100-
TEXAS HILL COUNTRY AND EDWARDS PLATEAU

CITY           SKY/WX    TMP DP  RH WIND       PRES   REMARKS
JUNCTION       MOSUNNY   89  56  32 S13G26    29.79F
*LLANO         MOSUNNY   90  61  37 S16       29.84F
BURNET         MOSUNNY   87  60  40 S12G17    29.86F
*HORSESHOE BAY PTSUNNY   87  57  36 S9G24     29.82F
*KERRVILLE     MOSUNNY   85  59  41 S17G23    29.85F
*FREDERICKSBRG MOSUNNY   84  59  42 S10G24    29.85F
*ROCKSPRINGS   MOSUNNY   84  57  39 S16G29    29.86F
*BOERNE STAGE  MOSUNNY   84  59  42 S12G20    29.87F
*CASTROVILLE   MOSUNNY   87  59  39 S14G23    29.85F
HONDO          MOSUNNY   91  62  37 SE16G25   29.83F HX  91
*UVALDE        MOSUNNY   88  61  39 SE14G25   29.81F
DEL RIO        SUNNY     93  58  30 SE18G32   29.73F HX  92
LAUGHLIN AFB   MOSUNNY   91  61  36 SE21G29   29.74F HX  91
CARRIZO SPRGS  SUNNY     90  63  40 S15G22    29.77  HX  90
$$

TXZ173-191>194-202-209-217>225-228-232100-
CENTRAL AND SOUTH CENTRAL TEXAS

CITY           SKY/WX    TMP DP  RH WIND       PRES   REMARKS
GEORGETOWN     MOSUNNY   86  61  42 SE13G22   29.83F
AUSTIN/BERGSTM MOSUNNY   85  65  51 S15G23    29.84F
AUSTIN/MABRY   MOSUNNY   87  64  46 S10G21    29.85F
*AUSTIN/EXEC   MOSUNNY   84  63  48 S13       29.85F
*LAGO VISTA    MOSUNNY   86  59  40 S10G18    29.86F
SAN MARCOS     NOT AVBL
NEW BRAUNFELS  PTSUNNY   84  65  52 S15G22    29.84F
RANDOLPH AFB   NOT AVBL
PT SAN ANTONIO MOSUNNY   88  63  42 S17G23    29.82F
SAN ANTONIO    PTSUNNY   89  63  41 SE20G25   29.84F HX  90
STINSON FIELD  PTSUNNY   91  63  39 SE14G24   29.81F HX  92
*PLEASANTON    MOSUNNY   88  61  39 SE12G21   29.83F
*LA GRANGE     MOSUNNY   85  68  56 S8G18     29.86F
*GIDDINGS      MOSUNNY   83  61  47 S10G17    29.91F
*GONZALES      PTSUNNY   83  68  59 S13       29.86F
$$

TXZ163>164-176>182-195>201-210>213-226-227-235-232100-
SOUTHEAST TEXAS

CITY           SKY/WX    TMP DP  RH WIND       PRES   REMARKS
COLLEGE STN    MOSUNNY   82  64  54 S15       29.89F
*BRYAN         MOSUNNY   80  65  61 SE12G17   29.89F
*CALDWELL      DRIZZLE   81  66  61 S14G21    29.91F
*CROCKETT      MOSUNNY   86  66  51 SE8       29.91F
*BRENHAM       MOSUNNY   81  63  54 S10G20    29.90F
HUNTSVILLE     MOSUNNY   83  65  54 S15       29.89F
CONROE         MOSUNNY   82  62  50 S14       29.90F
HOUSTON BUSH   MOSUNNY   82  64  54 SE13      29.89F
HOUSTON HOBBY  MOSUNNY   82  63  52 S10G18    29.89F
*HOUSTON SW AP MOSUNNY   83  63  51 S10       29.91F
PEARLAND       MOSUNNY   82  63  52 SE12G20   29.92F
HOUSTON HOOKS  PTSUNNY   83  64  52 SE6       29.89F
ELLINGTON FLD  PTSUNNY   88  66  48 SE8       29.92F HX  90
SUGAR LAND     PTSUNNY   83  64  52 S12       29.89F
*HOUSTON EXEC  MOSUNNY   84  61  45 S12       29.90F
*CLEVELAND MUN MOSUNNY   83  67  58 S12       29.91F
*WHARTON       MOSUNNY   82  66  58 SE13      29.90F
$$

TXZ214>216-236>238-232100-
THE UPPER TEXAS COAST

CITY           SKY/WX    TMP DP  RH WIND       PRES   REMARKS
*ORANGE        PTSUNNY   79  63  58 S10       29.94F
PORT ARTHUR    CLOUDY    80  66  62 S14       29.92F
GALVESTON      PTSUNNY   76  70  82 SE14      29.93F
ANGLETON       PTSUNNY   79  65  62 SE15      29.91F
*BAY CITY      MOSUNNY   81  69  67 SE13      29.91F
PALACIOS       MOSUNNY   77  67  71 S12       29.91F
$$

TXZ229>234-239>247-232100-
TEXAS COASTAL BEND AND RIO GRANDE PLAINS

CITY           SKY/WX    TMP DP  RH WIND       PRES   REMARKS
VICTORIA       PTSUNNY   84  65  52 S18G28    29.88F
*BEEVILLE      MOSUNNY   88  62  42 SE18G26   29.84F
ROCKPORT       PTSUNNY   80  69  69 SE15      29.88F
*PORT ARANSAS  MOSUNNY   77  70  78 SE9G16    29.89F
*PORT LAVACA   NOT AVBL
*INGLESIDE     MOSUNNY   82  66  57 SE18G26   29.88F
CORPUS CHRISTI MOSUNNY   87  64  46 SE15G28   29.86F
CORPUS NAS     MOSUNNY   81  69  67 SE18      29.87F
*ROBSTOWN      MOSUNNY   87  63  43 SE18      29.86F
ALICE          PTSUNNY   87  67  51 SE12G26   29.82F HX  90
KINGSVILLE NAS MOSUNNY   87  67  51 SE18G24   29.84F HX  90
COTULLA        SUNNY     89  63  41 SE18G25   29.80F HX  90
*FAITH RANCH   SUNNY     91  55  29 SE15G24   29.77F
LAREDO         SUNNY     91  65  42 SE14      29.80F HX  93
$$

TXZ248>255-232100-
DEEP SOUTH TEXAS

CITY           SKY/WX    TMP DP  RH WIND       PRES   REMARKS
BROWNSVILLE    SUNNY     86  61  42 SE21G26   29.85F
PORT ISABEL    NOT AVBL
*SOUTH PADRE   SUNNY     79  70  73 CALM      29.86F
HARLINGEN      SUNNY     89  63  41 S17G24    29.82F HX  90
*HEBBRONVILLE  MOSUNNY   85  65  51 SE15      29.84F
MCALLEN        SUNNY     89  66  46 S17       29.82F HX  91
*WESLACO       SUNNY     89  62  40 S13G23    29.83F
FALFURRIAS     PTSUNNY   87  64  45 SE12      29.81F
EDINBURG       PTSUNNY   88  65  46 S13G22    29.83F HX  90
*ZAPATA        PTSUNNY   89  64  42 SE15G22   29.79F HX  90
$$

TXZ213>215-236>238-242>244-246-247-251-254-255-232100-
CMAN STATIONS

STATION/POSITION TIME  TEMP    WIND        PRES    WAVE
                       AIR SEA DIR/SP/G            HT/PER
                 (UTC) (F)     (DEG/KT/KT) (MB)    (FT/S)
SABINE PASS      1900   72 72  140/ 12/ 14 1014.0
SEA RIM ST PARK  1900   73     160/  8/ 10 1014.8
NORTH JETTY/GLS  1900   72 73  170/ 11/ 13   N/A
EAGLE POINT      1900   72 70  150/ 14/ 15 1013.5
MORGANS POINT    1900   74 68  130/ 11/ 15   N/A
PORT O`CONNOR    1900          140/ 12/ 15   N/A
PORT ARANSAS     1900   71 74  120/ 12/ 13 1012.7
MALAQUITE BEACH  1900   72 72  120/ 13/ 14 1011.4
BAFFIN BAY       1900   75 79  130/ 13/ 18 1011.8
PORT ISABEL      1900   75 75  130/ 16/ 22 1011.7
$$

GMZ080-GMZ150>470-232100-
OFFSHORE BUOY REPORTS

STATION/POSITION TIME  TEMP    WIND        PRES    WAVE
                       AIR SEA DIR/SP/G            HT/PER
                 (UTC) (F)     (DEG/KT/KT) (MB)    (FT/S)
20 E GALVESTON   2000   71 72  140/ 10/ 12 1013.4    1
35 NE PT MANSFLD 2000   72 72  130/ 12/ 12 1011.7    1/ 4
$$